Terminal Aerodrome Forecast
Issued by NWS Northern Indiana

Home | Current Version | Previous Version | Graphics & Text | Print | Product List | Glossary On
Versions: 1 2 3 4 5 6 7 8 9 10 11 12 13 14 15 16 17 18 19 20 21 22 23 24
000
FTUS43 KIWX 200900 AAA
TAFFWA
TAF AMD
KFWA 200930Z 2010/2106 23005KT 6SM BR SCT025
     FM201400 27010KT P6SM SCT030
     FM210000 VRB03KT P6SM SCT250=

USA.gov is the U.S. government's official web portal to all federal, state and local government web resources and services.